Time,TemperatureF,DewpointF,PressureIn,WindDirection,WindDirectionDegrees,WindSpeedMPH,WindSpeedGustMPH,Humidity,HourlyPrecipIn,Conditions,Clouds,dailyrainin,SoftwareType,DateUTC
2013-04-21 00:01:00,47.7,32.7,30.31,NW,315,0.0,0.0,56,0.00,,,0.00,WUHU21523XXSP,2013-04-21 04:01:00,
2013-04-21 00:06:00,47.5,32.5,30.31,NW,315,0.0,0.0,56,0.00,,,0.00,WUHU21523XXSP,2013-04-21 04:06:00,
2013-04-21 00:11:00,47.3,32.8,30.31,NW,315,0.0,0.0,57,0.00,,,0.00,WUHU21523XXSP,2013-04-21 04:11:00,
2013-04-21 00:16:00,47.1,32.6,30.31,NW,315,0.0,0.0,57,0.00,,,0.00,WUHU21523XXSP,2013-04-21 04:16:00,
2013-04-21 00:21:00,47.1,32.6,30.31,NW,315,0.0,0.0,57,0.00,,,0.00,WUHU21523XXSP,2013-04-21 04:21:00,
2013-04-21 00:26:00,46.9,32.9,30.31,NW,315,0.0,0.0,58,0.00,,,0.00,WUHU21523XXSP,2013-04-21 04:26:00,
2013-04-21 00:31:00,46.8,33.2,30.31,NW,315,0.0,0.0,59,0.00,,,0.00,WUHU21523XXSP,2013-04-21 04:31:00,
2013-04-21 00:36:00,46.6,33.0,30.32,NW,315,0.0,0.0,59,0.00,,,0.00,WUHU21523XXSP,2013-04-21 04:36:00,
2013-04-21 00:41:00,46.4,33.3,30.32,NW,315,0.0,0.0,60,0.00,,,0.00,WUHU21523XXSP,2013-04-21 04:41:00,
2013-04-21 00:46:00,46.2,33.1,30.32,NW,315,0.0,0.0,60,0.00,,,0.00,WUHU21523XXSP,2013-04-21 04:46:00,
2013-04-21 00:51:00,46.2,33.1,30.32,NW,315,0.0,0.0,60,0.00,,,0.00,WUHU21523XXSP,2013-04-21 04:51:00,
2013-04-21 00:56:00,46.0,33.3,30.33,NW,315,0.0,0.0,61,0.00,,,0.00,WUHU21523XXSP,2013-04-21 04:56:00,
2013-04-21 01:01:00,46.0,33.3,30.33,NW,315,0.0,0.0,61,0.00,,,0.00,WUHU21523XXSP,2013-04-21 05:01:00,
2013-04-21 01:06:00,45.7,33.0,30.32,NW,315,0.0,0.0,61,0.00,,,0.00,WUHU21523XXSP,2013-04-21 05:06:00,
2013-04-21 01:11:00,45.7,33.0,30.32,NW,315,0.0,0.0,61,0.00,,,0.00,WUHU21523XXSP,2013-04-21 05:11:00,
2013-04-21 01:16:00,45.7,33.0,30.33,NW,315,0.0,0.0,61,0.00,,,0.00,WUHU21523XXSP,2013-04-21 05:16:00,
2013-04-21 01:21:00,45.7,33.4,30.32,NW,315,0.0,0.0,62,0.00,,,0.00,WUHU21523XXSP,2013-04-21 05:21:00,
2013-04-21 01:26:00,45.5,33.2,30.33,NW,315,0.0,0.0,62,0.00,,,0.00,WUHU21523XXSP,2013-04-21 05:26:00,
2013-04-21 01:31:00,45.3,33.2,30.33,NW,315,0.0,0.0,62,0.00,,,0.00,WUHU21523XXSP,2013-04-21 05:31:00,
2013-04-21 01:36:00,45.3,33.0,30.33,NW,315,0.0,0.0,62,0.00,,,0.00,WUHU21523XXSP,2013-04-21 05:36:00,
2013-04-21 01:41:00,45.1,32.9,30.33,NW,315,0.0,0.0,62,0.00,,,0.00,WUHU21523XXSP,2013-04-21 05:41:00,
2013-04-21 01:46:00,45.1,32.9,30.33,NW,315,0.0,0.0,62,0.00,,,0.00,WUHU21523XXSP,2013-04-21 05:46:00,
2013-04-21 01:51:00,45.1,32.9,30.33,NW,315,0.0,0.0,62,0.00,,,0.00,WUHU21523XXSP,2013-04-21 05:51:00,
2013-04-21 01:56:00,45.1,33.3,30.33,NW,315,0.0,0.0,63,0.00,,,0.00,WUHU21523XXSP,2013-04-21 05:56:00,
2013-04-21 02:01:00,45.1,33.3,30.33,NW,315,0.0,0.0,63,0.00,,,0.00,WUHU21523XXSP,2013-04-21 06:01:00,
2013-04-21 02:06:00,45.0,33.1,30.33,NW,315,0.0,0.0,63,0.00,,,0.00,WUHU21523XXSP,2013-04-21 06:06:00,
2013-04-21 02:11:00,44.8,32.9,30.33,NW,315,0.0,0.0,63,0.00,,,0.00,WUHU21523XXSP,2013-04-21 06:11:00,
2013-04-21 02:16:00,44.6,32.9,30.33,NW,315,0.0,0.0,63,0.00,,,0.00,WUHU21523XXSP,2013-04-21 06:16:00,
2013-04-21 02:21:00,44.4,32.8,30.33,NW,315,0.0,0.0,63,0.00,,,0.00,WUHU21523XXSP,2013-04-21 06:21:00,
2013-04-21 02:26:00,44.4,32.6,30.33,NW,315,0.0,0.0,63,0.00,,,0.00,WUHU21523XXSP,2013-04-21 06:26:00,
2013-04-21 02:31:00,44.2,32.6,30.33,NW,315,0.0,0.0,64,0.00,,,0.00,WUHU21523XXSP,2013-04-21 06:31:00,
2013-04-21 02:36:00,44.2,32.8,30.33,NW,315,0.0,0.0,64,0.00,,,0.00,WUHU21523XXSP,2013-04-21 06:36:00,
2013-04-21 02:41:00,44.1,32.6,30.33,WSW,247,0.0,0.0,64,0.00,,,0.00,WUHU21523XXSP,2013-04-21 06:41:00,
2013-04-21 02:46:00,43.9,32.5,30.33,WSW,247,0.0,0.0,64,0.00,,,0.00,WUHU21523XXSP,2013-04-21 06:46:00,
2013-04-21 02:51:00,43.7,32.3,30.33,WSW,247,0.0,0.0,64,0.00,,,0.00,WUHU21523XXSP,2013-04-21 06:51:00,
2013-04-21 02:56:00,43.5,32.5,30.33,WSW,247,0.0,0.0,65,0.00,,,0.00,WUHU21523XXSP,2013-04-21 06:56:00,
2013-04-21 03:01:00,43.5,32.5,30.33,WSW,247,0.0,0.0,65,0.00,,,0.00,WUHU21523XXSP,2013-04-21 07:01:00,
2013-04-21 03:06:00,43.3,32.3,30.33,WSW,247,0.0,0.0,65,0.00,,,0.00,WUHU21523XXSP,2013-04-21 07:06:00,
2013-04-21 03:11:00,43.0,32.4,30.33,WSW,247,0.0,0.0,66,0.00,,,0.00,WUHU21523XXSP,2013-04-21 07:11:00,
2013-04-21 03:16:00,43.0,32.4,30.34,SW,225,0.0,0.0,66,0.00,,,0.00,WUHU21523XXSP,2013-04-21 07:16:00,
2013-04-21 03:21:00,43.0,32.4,30.34,SSW,202,0.0,0.0,66,0.00,,,0.00,WUHU21523XXSP,2013-04-21 07:21:00,
2013-04-21 03:26:00,42.6,32.0,30.34,SSW,202,0.0,0.0,66,0.00,,,0.00,WUHU21523XXSP,2013-04-21 07:26:00,
2013-04-21 03:31:00,42.6,32.4,30.35,SSW,202,0.0,0.0,67,0.00,,,0.00,WUHU21523XXSP,2013-04-21 07:31:00,
2013-04-21 03:36:00,42.4,32.3,30.35,SSW,202,0.0,0.0,67,0.00,,,0.00,WUHU21523XXSP,2013-04-21 07:36:00,
2013-04-21 03:41:00,42.4,32.6,30.35,SSW,202,0.0,0.0,68,0.00,,,0.00,WUHU21523XXSP,2013-04-21 07:41:00,
2013-04-21 03:46:00,42.4,32.6,30.35,SSW,202,0.0,0.0,68,0.00,,,0.00,WUHU21523XXSP,2013-04-21 07:46:00,
2013-04-21 03:51:00,42.3,32.5,30.35,SSW,202,0.0,0.0,68,0.00,,,0.00,WUHU21523XXSP,2013-04-21 07:51:00,
2013-04-21 03:56:00,42.1,32.3,30.36,SSW,202,0.0,0.0,68,0.00,,,0.00,WUHU21523XXSP,2013-04-21 07:56:00,
2013-04-21 04:01:00,41.9,32.1,30.36,SSW,202,0.0,0.0,68,0.00,,,0.00,WUHU21523XXSP,2013-04-21 08:01:00,
2013-04-21 04:06:00,41.9,32.1,30.36,SSW,202,0.0,0.0,68,0.00,,,0.00,WUHU21523XXSP,2013-04-21 08:06:00,
2013-04-21 04:11:00,41.7,32.3,30.36,SSW,202,0.0,0.0,69,0.00,,,0.00,WUHU21523XXSP,2013-04-21 08:11:00,
2013-04-21 04:16:00,41.7,32.3,30.37,SSW,202,0.0,0.0,69,0.00,,,0.00,WUHU21523XXSP,2013-04-21 08:16:00,
2013-04-21 04:21:00,41.5,32.1,30.37,SSW,202,0.0,0.0,69,0.00,,,0.00,WUHU21523XXSP,2013-04-21 08:21:00,
2013-04-21 04:26:00,41.5,32.1,30.38,SSW,202,0.0,0.0,69,0.00,,,0.00,WUHU21523XXSP,2013-04-21 08:26:00,
2013-04-21 04:31:00,41.4,32.0,30.37,SSW,202,0.0,0.0,69,0.00,,,0.00,WUHU21523XXSP,2013-04-21 08:31:00,
2013-04-21 04:36:00,41.4,32.4,30.38,SSW,202,0.0,0.0,70,0.00,,,0.00,WUHU21523XXSP,2013-04-21 08:36:00,
2013-04-21 04:41:00,41.2,32.2,30.38,SSW,202,0.0,0.0,70,0.00,,,0.00,WUHU21523XXSP,2013-04-21 08:41:00,
2013-04-21 04:46:00,41.0,32.0,30.38,SSW,202,0.0,0.0,70,0.00,,,0.00,WUHU21523XXSP,2013-04-21 08:46:00,
2013-04-21 04:51:00,41.0,32.0,30.38,SSW,202,0.0,0.0,70,0.00,,,0.00,WUHU21523XXSP,2013-04-21 08:51:00,
2013-04-21 04:56:00,40.8,31.8,30.38,SSW,202,0.0,0.0,70,0.00,,,0.00,WUHU21523XXSP,2013-04-21 08:56:00,
2013-04-21 05:01:00,40.8,31.8,30.39,SSW,202,0.0,0.0,70,0.00,,,0.00,WUHU21523XXSP,2013-04-21 09:01:00,
2013-04-21 05:06:00,40.8,31.8,30.39,SSW,202,0.0,0.0,70,0.00,,,0.00,WUHU21523XXSP,2013-04-21 09:06:00,
2013-04-21 05:11:00,40.6,31.6,30.40,SSW,202,0.0,0.0,70,0.00,,,0.00,WUHU21523XXSP,2013-04-21 09:11:00,
2013-04-21 05:16:00,40.6,31.6,30.40,SSW,202,0.0,0.0,70,0.00,,,0.00,WUHU21523XXSP,2013-04-21 09:16:00,
2013-04-21 05:21:00,40.6,31.6,30.40,SSW,202,0.0,0.0,70,0.00,,,0.00,WUHU21523XXSP,2013-04-21 09:21:00,
2013-04-21 05:26:00,40.5,31.8,30.40,SSW,202,0.0,0.0,71,0.00,,,0.00,WUHU21523XXSP,2013-04-21 09:26:00,
2013-04-21 05:31:00,40.3,31.6,30.40,SSW,202,0.0,0.0,71,0.00,,,0.00,WUHU21523XXSP,2013-04-21 09:31:00,
2013-04-21 05:36:00,40.3,31.6,30.40,SSW,202,0.0,0.0,71,0.00,,,0.00,WUHU21523XXSP,2013-04-21 09:36:00,
2013-04-21 05:41:00,40.3,31.6,30.41,SSW,202,0.0,0.0,71,0.00,,,0.00,WUHU21523XXSP,2013-04-21 09:41:00,
2013-04-21 05:46:00,40.3,31.6,30.42,SSW,202,0.0,0.0,71,0.00,,,0.00,WUHU21523XXSP,2013-04-21 09:46:00,
2013-04-21 05:51:00,40.3,31.6,30.42,SSW,202,0.0,0.0,71,0.00,,,0.00,WUHU21523XXSP,2013-04-21 09:51:00,
2013-04-21 05:56:00,40.1,31.4,30.42,SSW,202,0.0,0.0,71,0.00,,,0.00,WUHU21523XXSP,2013-04-21 09:56:00,
2013-04-21 06:01:00,40.1,31.8,30.42,SSW,202,0.0,0.0,72,0.00,,,0.00,WUHU21523XXSP,2013-04-21 10:01:00,
2013-04-21 06:06:00,40.1,31.8,30.42,SSW,202,0.0,0.0,72,0.00,,,0.00,WUHU21523XXSP,2013-04-21 10:06:00,
2013-04-21 06:11:00,39.9,31.6,30.43,SSW,202,0.0,0.0,72,0.00,,,0.00,WUHU21523XXSP,2013-04-21 10:11:00,
2013-04-21 06:16:00,39.9,31.6,30.43,SSW,202,0.0,0.0,72,0.00,,,0.00,WUHU21523XXSP,2013-04-21 10:16:00,
2013-04-21 06:21:00,39.7,31.4,30.43,SSW,202,0.0,0.0,72,0.00,,,0.00,WUHU21523XXSP,2013-04-21 10:21:00,
2013-04-21 06:26:00,39.7,31.4,30.43,SSW,202,0.0,0.0,72,0.00,,,0.00,WUHU21523XXSP,2013-04-21 10:26:00,
2013-04-21 06:31:00,39.7,31.4,30.43,SSW,202,0.0,0.0,72,0.00,,,0.00,WUHU21523XXSP,2013-04-21 10:31:00,
2013-04-21 06:36:00,39.7,31.4,30.44,SSW,202,0.0,0.0,72,0.00,,,0.00,WUHU21523XXSP,2013-04-21 10:36:00,
2013-04-21 06:41:00,39.6,31.2,30.44,SSW,202,0.0,0.0,72,0.00,,,0.00,WUHU21523XXSP,2013-04-21 10:41:00,
2013-04-21 06:46:00,39.4,31.0,30.45,SSW,202,0.0,0.0,72,0.00,,,0.00,WUHU21523XXSP,2013-04-21 10:46:00,
2013-04-21 06:51:00,39.4,31.4,30.45,SSW,202,0.0,0.0,73,0.00,,,0.00,WUHU21523XXSP,2013-04-21 10:51:00,
2013-04-21 06:56:00,39.4,31.4,30.45,SSW,202,0.0,0.0,73,0.00,,,0.00,WUHU21523XXSP,2013-04-21 10:56:00,
2013-04-21 07:01:00,39.4,31.4,30.45,SSW,202,0.0,0.0,73,0.00,,,0.00,WUHU21523XXSP,2013-04-21 11:01:00,
2013-04-21 07:06:00,39.4,31.4,30.46,SSW,202,0.0,0.0,73,0.00,,,0.00,WUHU21523XXSP,2013-04-21 11:06:00,
2013-04-21 07:11:00,39.4,31.4,30.46,SSW,202,0.0,0.0,73,0.00,,,0.00,WUHU21523XXSP,2013-04-21 11:11:00,
2013-04-21 07:16:00,39.4,31.7,30.46,SSW,202,0.0,0.0,74,0.00,,,0.00,WUHU21523XXSP,2013-04-21 11:16:00,
2013-04-21 07:21:00,39.4,31.7,30.47,SSW,202,0.0,0.0,74,0.00,,,0.00,WUHU21523XXSP,2013-04-21 11:21:00,
2013-04-21 07:26:00,39.6,31.9,30.47,SSW,202,0.0,0.0,74,0.00,,,0.00,WUHU21523XXSP,2013-04-21 11:26:00,
2013-04-21 07:31:00,39.6,31.9,30.48,SSW,202,0.0,0.0,74,0.00,,,0.00,WUHU21523XXSP,2013-04-21 11:31:00,
2013-04-21 07:36:00,39.7,32.1,30.48,SSW,202,0.0,0.0,74,0.00,,,0.00,WUHU21523XXSP,2013-04-21 11:36:00,
2013-04-21 07:41:00,39.7,32.1,30.48,SSW,202,0.0,0.0,74,0.00,,,0.00,WUHU21523XXSP,2013-04-21 11:41:00,
2013-04-21 07:46:00,39.9,32.3,30.48,SSW,202,0.0,0.0,74,0.00,,,0.00,WUHU21523XXSP,2013-04-21 11:46:00,
2013-04-21 07:51:00,39.9,32.3,30.48,SSW,202,0.0,0.0,74,0.00,,,0.00,WUHU21523XXSP,2013-04-21 11:51:00,
2013-04-21 07:56:00,40.1,32.4,30.49,SSW,202,0.0,0.0,74,0.00,,,0.00,WUHU21523XXSP,2013-04-21 11:56:00,
2013-04-21 08:01:00,40.3,32.6,30.49,SSW,202,0.0,0.0,74,0.00,,,0.00,WUHU21523XXSP,2013-04-21 12:01:00,
2013-04-21 08:06:00,40.5,32.6,30.49,SSW,202,0.0,0.0,75,0.00,,,0.00,WUHU21523XXSP,2013-04-21 12:06:00,
2013-04-21 08:11:00,40.5,33.1,30.49,SSW,202,0.0,0.0,75,0.00,,,0.00,WUHU21523XXSP,2013-04-21 12:11:00,
2013-04-21 08:16:00,40.8,33.3,30.50,SSW,202,0.0,0.0,75,0.00,,,0.00,WUHU21523XXSP,2013-04-21 12:16:00,
2013-04-21 08:21:00,40.8,33.1,30.50,SSW,202,0.0,0.0,74,0.00,,,0.00,WUHU21523XXSP,2013-04-21 12:21:00,
2013-04-21 08:26:00,41.0,33.0,30.50,SSW,202,0.0,0.0,73,0.00,,,0.00,WUHU21523XXSP,2013-04-21 12:26:00,
2013-04-21 08:36:00,41.5,33.2,30.50,SW,225,0.0,0.0,72,0.00,,,0.00,WUHU21523XXSP,2013-04-21 12:36:00,
2013-04-21 08:41:00,41.7,33.4,30.49,SW,225,0.0,0.0,72,0.00,,,0.00,WUHU21523XXSP,2013-04-21 12:41:00,
2013-04-21 08:46:00,42.1,33.4,30.50,SW,225,0.0,0.0,71,0.00,,,0.00,WUHU21523XXSP,2013-04-21 12:46:00,
2013-04-21 08:51:00,42.4,33.4,30.49,NNE,22,0.0,0.0,70,0.00,,,0.00,WUHU21523XXSP,2013-04-21 12:51:00,
2013-04-21 08:56:00,42.6,33.2,30.50,NNE,22,8.7,8.7,69,0.00,,,0.00,WUHU21523XXSP,2013-04-21 12:56:00,
2013-04-21 09:01:00,43.0,33.6,30.50,NNE,22,0.0,8.7,69,0.00,,,0.00,WUHU21523XXSP,2013-04-21 13:01:00,
2013-04-21 09:06:00,43.5,34.1,30.50,North,0,0.0,0.0,69,0.00,,,0.00,WUHU21523XXSP,2013-04-21 13:06:00,
2013-04-21 09:11:00,43.7,34.2,30.51,SW,225,0.0,0.0,69,0.00,,,0.00,WUHU21523XXSP,2013-04-21 13:11:00,
2013-04-21 09:16:00,44.1,34.5,30.51,South,180,0.0,0.0,69,0.00,,,0.00,WUHU21523XXSP,2013-04-21 13:16:00,
2013-04-21 09:21:00,44.6,34.3,30.51,SSE,157,0.0,0.0,67,0.00,,,0.00,WUHU21523XXSP,2013-04-21 13:21:00,
2013-04-21 09:26:00,44.6,33.9,30.51,NNE,22,0.0,0.0,66,0.00,,,0.00,WUHU21523XXSP,2013-04-21 13:26:00,
2013-04-21 09:31:00,44.8,34.1,30.51,SSW,202,0.0,0.0,66,0.00,,,0.00,WUHU21523XXSP,2013-04-21 13:31:00,
2013-04-21 09:36:00,45.1,34.0,30.51,NNE,22,0.2,0.2,65,0.00,,,0.00,WUHU21523XXSP,2013-04-21 13:36:00,
2013-04-21 09:41:00,45.3,33.8,30.51,SSE,157,0.0,0.2,64,0.00,,,0.00,WUHU21523XXSP,2013-04-21 13:41:00,
2013-04-21 09:46:00,45.5,34.0,30.51,ENE,67,0.0,0.0,64,0.00,,,0.00,WUHU21523XXSP,2013-04-21 13:46:00,
2013-04-21 09:51:00,45.7,34.2,30.51,ENE,67,0.0,0.0,64,0.00,,,0.00,WUHU21523XXSP,2013-04-21 13:51:00,
2013-04-21 09:56:00,46.0,34.1,30.51,NE,45,0.0,0.0,63,0.00,,,0.00,WUHU21523XXSP,2013-04-21 13:56:00,
2013-04-21 10:01:00,46.2,34.3,30.51,North,0,0.0,0.0,63,0.00,,,0.00,WUHU21523XXSP,2013-04-21 14:01:00,
2013-04-21 10:06:00,46.6,34.2,30.51,SSW,202,0.7,0.7,62,0.00,,,0.00,WUHU21523XXSP,2013-04-21 14:06:00,
2013-04-21 10:11:00,46.9,34.6,30.52,South,180,2.2,2.2,62,0.00,,,0.00,WUHU21523XXSP,2013-04-21 14:11:00,
2013-04-21 10:16:00,47.1,34.8,30.52,South,180,0.0,2.2,62,0.00,,,0.00,WUHU21523XXSP,2013-04-21 14:16:00,
2013-04-21 10:21:00,47.8,35.5,30.52,South,180,4.3,4.3,62,0.00,,,0.00,WUHU21523XXSP,2013-04-21 14:21:00,
2013-04-21 10:26:00,48.0,35.3,30.52,NNE,22,0.0,4.3,61,0.00,,,0.00,WUHU21523XXSP,2013-04-21 14:26:00,
2013-04-21 10:31:00,48.2,35.1,30.52,North,0,3.4,3.4,60,0.00,,,0.00,WUHU21523XXSP,2013-04-21 14:31:00,
2013-04-21 10:36:00,48.4,35.2,30.52,SSW,202,3.6,3.6,60,0.00,,,0.00,WUHU21523XXSP,2013-04-21 14:36:00,
2013-04-21 10:41:00,48.7,35.5,30.52,NW,315,0.0,3.6,60,0.00,,,0.00,WUHU21523XXSP,2013-04-21 14:41:00,
2013-04-21 10:46:00,48.9,35.2,30.52,NE,45,7.6,7.6,59,0.00,,,0.00,WUHU21523XXSP,2013-04-21 14:46:00,
2013-04-21 10:51:00,49.1,35.4,30.52,NE,45,0.0,7.6,59,0.00,,,0.00,WUHU21523XXSP,2013-04-21 14:51:00,
2013-04-21 10:56:00,49.3,36.0,30.52,South,180,4.5,4.5,60,0.00,,,0.00,WUHU21523XXSP,2013-04-21 14:56:00,
2013-04-21 11:01:00,49.6,36.4,30.52,ENE,67,0.0,4.5,60,0.00,,,0.00,WUHU21523XXSP,2013-04-21 15:01:00,
2013-04-21 11:06:00,50.2,36.4,30.52,NE,45,0.0,21.3,59,0.00,,,0.00,WUHU21523XXSP,2013-04-21 15:06:00,
2013-04-21 11:11:00,50.5,36.7,30.51,SSE,157,6.3,21.3,59,0.00,,,0.00,WUHU21523XXSP,2013-04-21 15:11:00,
2013-04-21 11:16:00,50.7,36.9,30.52,West,270,0.0,6.3,59,0.00,,,0.00,WUHU21523XXSP,2013-04-21 15:16:00,
2013-04-21 11:21:00,51.3,36.9,30.52,South,180,0.7,0.7,58,0.00,,,0.00,WUHU21523XXSP,2013-04-21 15:21:00,
2013-04-21 11:31:00,51.8,37.4,30.51,ENE,67,0.0,0.7,58,0.00,,,0.00,WUHU21523XXSP,2013-04-21 15:31:00,
2013-04-21 11:36:00,51.8,36.5,30.51,SW,225,1.3,1.3,56,0.00,,,0.00,WUHU21523XXSP,2013-04-21 15:36:00,
2013-04-21 11:41:00,51.8,37.0,30.51,ENE,67,0.0,1.3,57,0.00,,,0.00,WUHU21523XXSP,2013-04-21 15:41:00,
2013-04-21 11:46:00,52.0,37.1,30.51,NW,315,0.0,0.0,57,0.00,,,0.00,WUHU21523XXSP,2013-04-21 15:46:00,
2013-04-21 11:51:00,52.2,36.8,30.51,NNE,22,0.0,0.7,56,0.00,,,0.00,WUHU21523XXSP,2013-04-21 15:51:00,
2013-04-21 11:56:00,52.3,37.0,30.51,NE,45,7.6,7.6,56,0.00,,,0.00,WUHU21523XXSP,2013-04-21 15:56:00,
2013-04-21 12:01:00,52.5,37.2,30.51,ENE,67,0.0,7.6,56,0.00,,,0.00,WUHU21523XXSP,2013-04-21 16:01:00,
2013-04-21 12:06:00,52.9,37.1,30.51,NNE,22,0.0,0.0,55,0.00,,,0.00,WUHU21523XXSP,2013-04-21 16:06:00,
2013-04-21 12:11:00,53.2,37.4,30.51,NW,315,0.0,0.2,55,0.00,,,0.00,WUHU21523XXSP,2013-04-21 16:11:00,
2013-04-21 12:16:00,53.4,37.6,30.51,West,270,0.0,0.2,55,0.00,,,0.00,WUHU21523XXSP,2013-04-21 16:16:00,
2013-04-21 12:21:00,53.4,37.6,30.51,West,270,0.0,0.0,55,0.00,,,0.00,WUHU21523XXSP,2013-04-21 16:21:00,
2013-04-21 12:26:00,53.8,37.9,30.51,South,180,0.0,0.0,55,0.00,,,0.00,WUHU21523XXSP,2013-04-21 16:26:00,
2013-04-21 12:31:00,53.8,37.9,30.51,ENE,67,0.0,0.0,55,0.00,,,0.00,WUHU21523XXSP,2013-04-21 16:31:00,
2013-04-21 12:36:00,54.1,37.8,30.50,South,186,2.2,3.1,54,0.00,,,0.00,WUHU21523XXSP,2013-04-21 16:36:00,
2013-04-21 12:41:00,54.1,37.8,30.50,South,180,2.5,3.1,54,0.00,,,0.00,WUHU21523XXSP,2013-04-21 16:41:00,
2013-04-21 12:46:00,54.3,37.5,30.50,ESE,112,0.0,3.1,53,0.00,,,0.00,WUHU21523XXSP,2013-04-21 16:46:00,
2013-04-21 12:51:00,54.5,38.1,30.50,SSW,202,0.0,0.0,54,0.00,,,0.00,WUHU21523XXSP,2013-04-21 16:51:00,
2013-04-21 12:57:00,54.7,37.8,30.49,NNE,22,0.0,0.0,53,0.00,,,0.00,WUHU21523XXSP,2013-04-21 16:57:00,
2013-04-21 13:02:00,54.9,38.4,30.50,ENE,67,0.0,0.0,54,0.00,,,0.00,WUHU21523XXSP,2013-04-21 17:02:00,
2013-04-21 13:07:00,55.0,38.6,30.49,ENE,67,0.0,0.0,54,0.00,,,0.00,WUHU21523XXSP,2013-04-21 17:07:00,
2013-04-21 13:12:00,55.0,38.6,30.49,SSW,202,0.0,0.0,54,0.00,,,0.00,WUHU21523XXSP,2013-04-21 17:12:00,
2013-04-21 13:17:00,55.2,38.3,30.49,South,180,0.2,0.2,53,0.00,,,0.00,WUHU21523XXSP,2013-04-21 17:17:00,
2013-04-21 13:22:00,55.2,38.3,30.48,SSE,157,0.0,0.2,53,0.00,,,0.00,WUHU21523XXSP,2013-04-21 17:22:00,
2013-04-21 13:27:00,55.0,37.7,30.48,East,90,1.1,1.1,52,0.00,,,0.00,WUHU21523XXSP,2013-04-21 17:27:00,
2013-04-21 13:32:00,55.0,38.1,30.48,South,180,0.0,1.1,53,0.00,,,0.00,WUHU21523XXSP,2013-04-21 17:32:00,
2013-04-21 13:37:00,55.0,38.1,30.48,WSW,247,0.0,0.0,53,0.00,,,0.00,WUHU21523XXSP,2013-04-21 17:37:00,
2013-04-21 13:42:00,55.2,37.8,30.48,SSE,162,0.8,2.0,52,0.00,,,0.00,WUHU21523XXSP,2013-04-21 17:42:00,
2013-04-21 13:47:00,55.4,38.4,30.48,South,176,1.6,2.9,53,0.00,,,0.00,WUHU21523XXSP,2013-04-21 17:47:00,
2013-04-21 13:52:00,55.9,39.0,30.48,SW,225,0.0,2.9,53,0.00,,,0.00,WUHU21523XXSP,2013-04-21 17:52:00,
2013-04-21 13:57:00,56.3,38.5,30.47,SW,225,0.0,1.4,53,0.00,,,0.00,WUHU21523XXSP,2013-04-21 17:57:00,
2013-04-21 14:02:00,56.5,38.6,30.47,East,90,0.0,0.0,51,0.00,,,0.00,WUHU21523XXSP,2013-04-21 18:02:00,
2013-04-21 14:07:00,57.0,39.6,30.47,SSW,202,0.0,0.0,52,0.00,,,0.00,WUHU21523XXSP,2013-04-21 18:07:00,
2013-04-21 14:12:00,57.2,39.8,30.47,ESE,112,0.0,0.0,52,0.00,,,0.00,WUHU21523XXSP,2013-04-21 18:12:00,
2013-04-21 14:17:00,57.6,39.2,30.47,SSW,202,4.5,4.5,50,0.00,,,0.00,WUHU21523XXSP,2013-04-21 18:17:00,
2013-04-21 14:22:00,57.7,39.3,30.47,SSW,202,1.3,17.9,50,0.00,,,0.00,WUHU21523XXSP,2013-04-21 18:22:00,
2013-04-21 14:27:00,57.9,39.5,30.47,NE,45,21.3,21.3,50,0.00,,,0.00,WUHU21523XXSP,2013-04-21 18:27:00,
2013-04-21 14:32:00,57.9,39.5,30.47,South,180,0.6,21.3,50,0.00,,,0.00,WUHU21523XXSP,2013-04-21 18:32:00,
2013-04-21 14:37:00,58.3,39.2,30.45,ENE,67,21.7,21.7,49,0.00,,,0.00,WUHU21523XXSP,2013-04-21 18:37:00,
2013-04-21 14:42:00,58.3,39.2,30.46,North,0,23.7,23.7,49,0.00,,,0.00,WUHU21523XXSP,2013-04-21 18:42:00,
2013-04-21 14:47:00,58.3,39.2,30.45,NNE,22,18.1,23.7,49,0.00,,,0.00,WUHU21523XXSP,2013-04-21 18:47:00,
2013-04-21 14:52:00,58.3,39.2,30.46,NNE,22,0.0,23.7,49,0.00,,,0.00,WUHU21523XXSP,2013-04-21 18:52:00,
2013-04-21 14:57:00,58.3,39.2,30.46,ENE,67,1.6,21.5,49,0.00,,,0.00,WUHU21523XXSP,2013-04-21 18:57:00,
2013-04-21 15:02:00,58.5,39.4,30.45,ENE,67,19.5,21.5,49,0.00,,,0.00,WUHU21523XXSP,2013-04-21 19:02:00,
2013-04-21 15:07:00,58.6,39.6,30.45,NNW,337,0.0,28.6,49,0.00,,,0.00,WUHU21523XXSP,2013-04-21 19:07:00,
2013-04-21 15:12:00,58.6,39.0,30.45,NE,45,0.7,28.6,48,0.00,,,0.00,WUHU21523XXSP,2013-04-21 19:12:00,
2013-04-21 15:17:00,58.8,39.1,30.44,WNW,292,0.6,0.7,48,0.00,,,0.00,WUHU21523XXSP,2013-04-21 19:17:00,
2013-04-21 15:22:00,58.8,39.1,30.44,South,180,1.1,1.1,48,0.00,,,0.00,WUHU21523XXSP,2013-04-21 19:22:00,
2013-04-21 15:27:00,59.0,39.3,30.44,ENE,67,0.4,1.1,48,0.00,,,0.00,WUHU21523XXSP,2013-04-21 19:27:00,
2013-04-21 15:32:00,59.2,38.9,30.44,North,0,0.0,2.7,46,0.00,,,0.00,WUHU21523XXSP,2013-04-21 19:32:00,
2013-04-21 15:37:00,59.2,38.9,30.43,SW,220,12.0,19.2,47,0.00,,,0.00,WUHU21523XXSP,2013-04-21 19:37:00,
2013-04-21 15:42:00,59.7,39.4,30.43,NE,45,23.5,23.5,47,0.00,,,0.00,WUHU21523XXSP,2013-04-21 19:42:00,
2013-04-21 15:47:00,59.9,39.5,30.44,NNE,22,0.0,23.5,47,0.00,,,0.00,WUHU21523XXSP,2013-04-21 19:47:00,
2013-04-21 15:52:00,60.4,39.5,30.43,WNW,292,0.0,3.6,46,0.00,,,0.00,WUHU21523XXSP,2013-04-21 19:52:00,
2013-04-21 15:57:00,60.6,39.6,30.44,SW,225,0.0,3.6,46,0.00,,,0.00,WUHU21523XXSP,2013-04-21 19:57:00,
2013-04-21 16:02:00,60.6,39.6,30.44,NNE,22,7.2,7.2,46,0.00,,,0.00,WUHU21523XXSP,2013-04-21 20:02:00,
2013-04-21 16:07:00,60.6,39.6,30.43,SSE,157,0.7,7.2,46,0.00,,,0.00,WUHU21523XXSP,2013-04-21 20:07:00,
2013-04-21 16:12:00,60.6,40.2,30.43,SE,146,0.1,0.7,47,0.00,,,0.00,WUHU21523XXSP,2013-04-21 20:12:00,
2013-04-21 16:17:00,60.4,38.9,30.43,South,184,3.7,6.9,45,0.00,,,0.00,WUHU21523XXSP,2013-04-21 20:17:00,
2013-04-21 16:22:00,60.6,39.6,30.43,ENE,67,0.0,17.9,46,0.00,,,0.00,WUHU21523XXSP,2013-04-21 20:22:00,
2013-04-21 16:27:00,60.6,40.2,30.43,WSW,247,19.2,19.2,47,0.00,,,0.00,WUHU21523XXSP,2013-04-21 20:27:00,
2013-04-21 16:32:00,60.6,39.6,30.43,NNE,31,2.6,19.2,46,0.00,,,0.00,WUHU21523XXSP,2013-04-21 20:32:00,
2013-04-21 16:37:00,60.8,39.8,30.43,ENE,67,1.6,3.8,46,0.00,,,0.00,WUHU21523XXSP,2013-04-21 20:37:00,
2013-04-21 16:42:00,60.6,39.6,30.43,SW,225,17.7,17.7,46,0.00,,,0.00,WUHU21523XXSP,2013-04-21 20:42:00,
2013-04-21 16:47:00,60.4,38.9,30.43,SSW,202,0.0,17.7,45,0.00,,,0.00,WUHU21523XXSP,2013-04-21 20:47:00,
2013-04-21 16:52:00,60.1,38.6,30.43,SSW,202,3.6,3.6,45,0.00,,,0.00,WUHU21523XXSP,2013-04-21 20:52:00,
2013-04-21 16:57:00,59.9,39.0,30.42,SSW,202,2.0,3.6,46,0.00,,,0.00,WUHU21523XXSP,2013-04-21 20:57:00,
2013-04-21 17:02:00,59.9,39.0,30.42,NW,315,0.0,3.6,46,0.00,,,0.00,WUHU21523XXSP,2013-04-21 21:02:00,
2013-04-21 17:07:00,59.7,38.8,30.42,ENE,67,1.6,1.6,46,0.00,,,0.00,WUHU21523XXSP,2013-04-21 21:07:00,
2013-04-21 17:12:00,59.5,38.6,30.42,SSW,202,0.0,1.6,46,0.00,,,0.00,WUHU21523XXSP,2013-04-21 21:12:00,
2013-04-21 17:17:00,59.4,38.5,30.42,ESE,112,0.0,1.6,46,0.00,,,0.00,WUHU21523XXSP,2013-04-21 21:17:00,
2013-04-21 17:22:00,58.8,38.0,30.42,South,180,1.1,2.0,46,0.00,,,0.00,WUHU21523XXSP,2013-04-21 21:22:00,
2013-04-21 17:27:00,58.6,37.8,30.43,SSE,157,3.4,3.4,46,0.00,,,0.00,WUHU21523XXSP,2013-04-21 21:27:00,
2013-04-21 17:32:00,58.5,37.7,30.42,SSE,157,0.0,3.4,46,0.00,,,0.00,WUHU21523XXSP,2013-04-21 21:32:00,
2013-04-21 17:37:00,58.3,38.1,30.42,South,180,0.0,0.0,47,0.00,,,0.00,WUHU21523XXSP,2013-04-21 21:37:00,
2013-04-21 17:42:00,58.3,38.1,30.42,ENE,67,4.9,4.9,47,0.00,,,0.00,WUHU21523XXSP,2013-04-21 21:42:00,
2013-04-21 17:47:00,58.3,38.1,30.42,ENE,67,0.0,4.9,47,0.00,,,0.00,WUHU21523XXSP,2013-04-21 21:47:00,
2013-04-21 17:52:00,58.1,37.9,30.42,ENE,67,1.3,1.3,47,0.00,,,0.00,WUHU21523XXSP,2013-04-21 21:52:00,
2013-04-21 17:57:00,58.1,37.9,30.42,North,0,0.0,1.3,47,0.00,,,0.00,WUHU21523XXSP,2013-04-21 21:57:00,
2013-04-21 18:02:00,58.1,38.5,30.42,East,90,0.0,1.3,48,0.00,,,0.00,WUHU21523XXSP,2013-04-21 22:02:00,
2013-04-21 18:07:00,57.9,37.8,30.42,ENE,67,3.8,3.8,47,0.00,,,0.00,WUHU21523XXSP,2013-04-21 22:07:00,
2013-04-21 18:12:00,57.9,37.8,30.42,East,90,0.0,3.8,47,0.00,,,0.00,WUHU21523XXSP,2013-04-21 22:12:00,
2013-04-21 18:17:00,57.7,38.2,30.43,SSW,202,0.0,1.6,48,0.00,,,0.00,WUHU21523XXSP,2013-04-21 22:17:00,
2013-04-21 18:22:00,57.6,37.4,30.42,SE,135,0.0,0.0,47,0.00,,,0.00,WUHU21523XXSP,2013-04-21 22:22:00,
2013-04-21 18:27:00,57.6,37.4,30.42,NW,315,0.0,0.0,47,0.00,,,0.00,WUHU21523XXSP,2013-04-21 22:27:00,
2013-04-21 18:32:00,57.4,37.3,30.43,South,180,0.7,0.7,47,0.00,,,0.00,WUHU21523XXSP,2013-04-21 22:32:00,
2013-04-21 18:37:00,57.4,37.3,30.43,NW,315,0.0,3.1,47,0.00,,,0.00,WUHU21523XXSP,2013-04-21 22:37:00,
2013-04-21 18:42:00,57.0,37.5,30.42,East,90,3.1,3.1,48,0.00,,,0.00,WUHU21523XXSP,2013-04-21 22:42:00,
2013-04-21 18:47:00,57.0,37.5,30.42,ESE,112,0.0,3.1,48,0.00,,,0.00,WUHU21523XXSP,2013-04-21 22:47:00,
2013-04-21 18:52:00,56.8,37.3,30.43,ENE,67,0.0,0.0,48,0.00,,,0.00,WUHU21523XXSP,2013-04-21 22:52:00,
2013-04-21 18:57:00,56.8,37.3,30.43,ENE,67,0.7,0.7,48,0.00,,,0.00,WUHU21523XXSP,2013-04-21 22:57:00,
2013-04-21 19:02:00,56.5,37.0,30.43,ENE,67,0.0,0.7,48,0.00,,,0.00,WUHU21523XXSP,2013-04-21 23:02:00,
2013-04-21 19:07:00,56.3,36.8,30.43,South,180,6.9,6.9,48,0.00,,,0.00,WUHU21523XXSP,2013-04-21 23:07:00,
2013-04-21 19:12:00,56.1,36.6,30.43,SE,135,0.0,6.9,48,0.00,,,0.00,WUHU21523XXSP,2013-04-21 23:12:00,
2013-04-21 19:17:00,56.1,37.2,30.43,SE,135,0.0,6.9,49,0.00,,,0.00,WUHU21523XXSP,2013-04-21 23:17:00,
2013-04-21 19:22:00,55.9,37.6,30.43,SW,225,6.7,6.7,50,0.00,,,0.00,WUHU21523XXSP,2013-04-21 23:22:00,
2013-04-21 19:27:00,55.8,36.8,30.43,SSW,195,3.4,7.6,49,0.00,,,0.00,WUHU21523XXSP,2013-04-21 23:27:00,
2013-04-21 19:32:00,55.6,36.6,30.43,NE,45,0.0,7.6,49,0.00,,,0.00,WUHU21523XXSP,2013-04-21 23:32:00,
2013-04-21 19:37:00,55.2,36.3,30.43,ENE,67,0.0,0.0,49,0.00,,,0.00,WUHU21523XXSP,2013-04-21 23:37:00,
2013-04-21 19:42:00,55.2,36.9,30.43,SSW,202,0.0,0.0,50,0.00,,,0.00,WUHU21523XXSP,2013-04-21 23:42:00,
2013-04-21 19:47:00,54.9,36.6,30.43,ENE,67,0.0,0.0,50,0.00,,,0.00,WUHU21523XXSP,2013-04-21 23:47:00,
2013-04-21 19:52:00,54.7,36.4,30.43,South,180,1.1,1.1,50,0.00,,,0.00,WUHU21523XXSP,2013-04-21 23:52:00,
2013-04-21 19:57:00,54.7,36.4,30.43,South,180,0.0,1.1,50,0.00,,,0.00,WUHU21523XXSP,2013-04-21 23:57:00,
2013-04-21 20:02:00,54.3,36.5,30.44,SE,135,0.0,0.0,51,0.00,,,0.00,WUHU21523XXSP,2013-04-22 00:02:00,
2013-04-21 20:07:00,54.3,36.5,30.44,South,180,1.8,1.8,51,0.00,,,0.00,WUHU21523XXSP,2013-04-22 00:07:00,
2013-04-21 20:12:00,54.1,36.4,30.44,WSW,247,0.0,1.8,51,0.00,,,0.00,WUHU21523XXSP,2013-04-22 00:12:00,
2013-04-21 20:17:00,54.0,36.2,30.44,NE,45,0.0,0.0,51,0.00,,,0.00,WUHU21523XXSP,2013-04-22 00:17:00,
2013-04-21 20:22:00,53.8,36.0,30.44,ENE,67,0.0,0.0,51,0.00,,,0.00,WUHU21523XXSP,2013-04-22 00:22:00,
2013-04-21 20:27:00,53.8,36.5,30.44,ENE,67,0.0,0.0,52,0.00,,,0.00,WUHU21523XXSP,2013-04-22 00:27:00,
2013-04-21 20:32:00,53.4,36.2,30.45,North,0,0.0,1.6,52,0.00,,,0.00,WUHU21523XXSP,2013-04-22 00:32:00,
2013-04-21 20:37:00,53.4,36.2,30.45,WSW,247,0.0,1.6,52,0.00,,,0.00,WUHU21523XXSP,2013-04-22 00:37:00,
2013-04-21 20:42:00,53.2,36.0,30.45,WSW,247,0.0,0.0,52,0.00,,,0.00,WUHU21523XXSP,2013-04-22 00:42:00,
2013-04-21 20:47:00,53.2,36.5,30.45,East,90,0.0,0.0,53,0.00,,,0.00,WUHU21523XXSP,2013-04-22 00:47:00,
2013-04-21 20:52:00,53.2,36.5,30.45,NE,45,0.0,0.0,53,0.00,,,0.00,WUHU21523XXSP,2013-04-22 00:52:00,
2013-04-21 20:57:00,53.1,36.5,30.45,NE,45,0.0,0.0,53,0.00,,,0.00,WUHU21523XXSP,2013-04-22 00:57:00,
2013-04-21 21:02:00,52.9,36.6,30.46,SE,135,0.0,0.0,54,0.00,,,0.00,WUHU21523XXSP,2013-04-22 01:02:00,
2013-04-21 21:07:00,52.7,36.4,30.46,SSE,157,0.0,0.0,54,0.00,,,0.00,WUHU21523XXSP,2013-04-22 01:07:00,
2013-04-21 21:13:00,52.5,36.3,30.46,SSE,157,0.0,0.0,54,0.00,,,0.00,WUHU21523XXSP,2013-04-22 01:13:00,
2013-04-21 21:22:00,52.3,36.6,30.46,SSE,157,0.0,0.0,55,0.00,,,0.00,WUHU21523XXSP,2013-04-22 01:22:00,
2013-04-21 21:27:00,52.2,36.4,30.46,SSE,157,0.0,0.0,55,0.00,,,0.00,WUHU21523XXSP,2013-04-22 01:27:00,
2013-04-21 21:32:00,52.2,36.4,30.47,South,180,0.0,0.0,55,0.00,,,0.00,WUHU21523XXSP,2013-04-22 01:32:00,
2013-04-21 21:37:00,52.0,36.7,30.47,South,180,0.0,0.0,56,0.00,,,0.00,WUHU21523XXSP,2013-04-22 01:37:00,
2013-04-21 21:42:00,52.0,36.7,30.47,South,180,0.0,0.0,56,0.00,,,0.00,WUHU21523XXSP,2013-04-22 01:42:00,
2013-04-21 21:47:00,51.8,36.5,30.47,South,180,0.0,0.0,56,0.00,,,0.00,WUHU21523XXSP,2013-04-22 01:47:00,
2013-04-21 21:52:00,51.6,36.3,30.47,ENE,67,0.0,0.0,56,0.00,,,0.00,WUHU21523XXSP,2013-04-22 01:52:00,
2013-04-21 21:57:00,51.6,36.3,30.48,ENE,67,0.0,0.0,56,0.00,,,0.00,WUHU21523XXSP,2013-04-22 01:57:00,
2013-04-21 22:02:00,51.4,36.2,30.48,ENE,67,0.0,0.0,56,0.00,,,0.00,WUHU21523XXSP,2013-04-22 02:02:00,
2013-04-21 22:07:00,51.3,36.0,30.48,ENE,67,0.0,0.0,56,0.00,,,0.00,WUHU21523XXSP,2013-04-22 02:07:00,
2013-04-21 22:12:00,51.3,36.5,30.48,ENE,67,0.0,0.0,57,0.00,,,0.00,WUHU21523XXSP,2013-04-22 02:12:00,
2013-04-21 22:17:00,51.1,36.3,30.48,ENE,67,0.0,0.0,57,0.00,,,0.00,WUHU21523XXSP,2013-04-22 02:17:00,
2013-04-21 22:22:00,51.1,36.3,30.48,ENE,67,0.0,0.0,57,0.00,,,0.00,WUHU21523XXSP,2013-04-22 02:22:00,
2013-04-21 22:27:00,51.1,36.3,30.48,ENE,67,0.0,0.0,57,0.00,,,0.00,WUHU21523XXSP,2013-04-22 02:27:00,
2013-04-21 22:32:00,50.9,36.1,30.48,NNE,22,0.0,0.0,57,0.00,,,0.00,WUHU21523XXSP,2013-04-22 02:32:00,
2013-04-21 22:37:00,50.7,36.0,30.48,NNE,22,0.0,0.0,57,0.00,,,0.00,WUHU21523XXSP,2013-04-22 02:37:00,
2013-04-21 22:42:00,50.7,36.0,30.48,NNE,22,0.0,0.0,57,0.00,,,0.00,WUHU21523XXSP,2013-04-22 02:42:00,
2013-04-21 22:47:00,50.5,35.8,30.48,SE,135,0.0,0.0,57,0.00,,,0.00,WUHU21523XXSP,2013-04-22 02:47:00,
2013-04-21 22:52:00,50.5,35.8,30.48,SSE,157,0.0,0.0,57,0.00,,,0.00,WUHU21523XXSP,2013-04-22 02:52:00,
2013-04-21 22:57:00,50.5,35.8,30.48,SSE,157,0.0,0.0,57,0.00,,,0.00,WUHU21523XXSP,2013-04-22 02:57:00,
2013-04-21 23:02:00,50.4,36.1,30.48,SSE,157,0.0,0.0,58,0.00,,,0.00,WUHU21523XXSP,2013-04-22 03:02:00,
2013-04-21 23:07:00,50.4,36.1,30.48,SSE,157,0.0,0.0,58,0.00,,,0.00,WUHU21523XXSP,2013-04-22 03:07:00,
2013-04-21 23:12:00,50.2,35.9,30.48,SSE,157,0.0,0.0,58,0.00,,,0.00,WUHU21523XXSP,2013-04-22 03:12:00,
2013-04-21 23:17:00,50.2,35.9,30.48,NE,45,0.7,0.7,58,0.00,,,0.00,WUHU21523XXSP,2013-04-22 03:17:00,
2013-04-21 23:22:00,50.0,35.8,30.48,NE,45,0.0,0.7,58,0.00,,,0.00,WUHU21523XXSP,2013-04-22 03:22:00,
2013-04-21 23:27:00,49.8,36.0,30.48,South,180,0.0,0.7,59,0.00,,,0.00,WUHU21523XXSP,2013-04-22 03:27:00,
2013-04-21 23:32:00,49.8,36.0,30.48,South,180,0.0,0.0,59,0.00,,,0.00,WUHU21523XXSP,2013-04-22 03:32:00,
2013-04-21 23:37:00,49.8,36.0,30.48,South,180,0.0,0.0,59,0.00,,,0.00,WUHU21523XXSP,2013-04-22 03:37:00,
2013-04-21 23:42:00,49.8,36.0,30.48,South,180,0.0,0.0,59,0.00,,,0.00,WUHU21523XXSP,2013-04-22 03:42:00,
2013-04-21 23:47:00,49.6,35.9,30.48,South,180,0.0,0.0,59,0.00,,,0.00,WUHU21523XXSP,2013-04-22 03:47:00,
2013-04-21 23:52:00,49.6,35.9,30.48,South,180,0.0,0.0,59,0.00,,,0.00,WUHU21523XXSP,2013-04-22 03:52:00,
2013-04-21 23:57:00,49.3,35.6,30.48,South,180,0.0,0.0,59,0.00,,,0.00,WUHU21523XXSP,2013-04-22 03:57:00,